Flag for Germany Weather past 2 weeks in Kulmbach, Bavaria, Germany

Now
34 °F

Passing clouds.


Feels Like: 27 °F
Forecast: 38 / 43 °F
Wind: 7 mph from West

Location: Hof

Current Time: Dec 21, 2014 at 6:08:18 AM

Latest Report: Dec 21, 2014 at 5:00 AM


Visibility: 19 mi

Pressure: 30.34 "Hg

Humidity: 87%

Dew point: 30 °F

Location of KulmbachLocation

Historic Weather in Kulmbach — Graph

°F

Kulmbach temperature yesterday

Maximum temperature yesterday: 40 °F (at 12:00 AM)
Minimum temperature yesterday: 34 °F (at 5:00 AM)
Average temperature yesterday: 36 °F

Past Weeks' High & Low Weather Summary

 TemperatureHumidityPressure
High50 °F (Dec 19, 12:00 AM)100% (Dec 6, 5:00 AM)30.49 "Hg (Dec 6, 5:00 AM)
Low26 °F (Dec 9, 8:00 PM)70% (Dec 15, 2:00 PM)29.64 "Hg (Dec 12, 9:00 PM)
Average37 °F93%30.03 "Hg
* Reported Dec 6 5:00 AM — Dec 21 5:00 AM, Kulmbach, Weather by CustomWeather, © 2014

Note: Actual official high and low records may vary slightly from our data, if they occured in-between our weather recording intervals... More about our weather records

Advertising

Kulmbach weather history for previous 24 hours

 ConditionsComfort  
Time TempWeatherWind HumidityBarometerVisibility
5:00 AM
Dec 21
34 °FPassing clouds.7 mph87%30.34 "Hg19 mi
3:00 AM33 °FPassing clouds.5 mph88%30.30 "Hg18 mi
2:00 AM34 °FPassing clouds.5 mph87%30.27 "Hg22 mi
1:00 AM33 °FPassing clouds.6 mph90%30.25 "Hg19 mi
12:00 AM34 °FOvercast.5 mph87%30.23 "Hg31 mi
11:00 PM
Dec 20
35 °FOvercast.6 mph88%30.19 "Hg37 mi
9:00 PM36 °FLight freezing rain. Low clouds.7 mph91%30.11 "Hg10 mi
8:00 PM36 °FLow clouds.8 mph92%30.10 "Hg37 mi
7:00 PM36 °FRain. Low clouds.9 mph90%30.05 "Hg4 mi
6:00 PM36 °FDrizzle. Low clouds.8 mph89%30.04 "Hg18 mi
5:00 PM36 °FLight rain. Low clouds.8 mph86%30.03 "Hg18 mi
4:00 PM36 °FLow clouds.7 mph87%30.05 "Hg37 mi
3:00 PM36 °FLight freezing rain. Low clouds.8 mph87%30.05 "Hg4 mi
2:00 PM35 °FDrizzle. Low clouds.7 mph89%30.06 "Hg12 mi
1:00 PM36 °FOvercast.10 mph82%30.08 "Hg31 mi
12:00 PM36 °FOvercast.8 mph82%30.10 "Hg31 mi
11:00 AM36 °FOvercast.7 mph84%30.13 "Hg31 mi
9:00 AM35 °FPartly sunny.8 mph84%30.15 "Hg34 mi
8:00 AM35 °FOvercast.8 mph86%30.16 "Hg28 mi
7:00 AM35 °FPassing clouds.7 mph87%30.16 "Hg28 mi
6:00 AM35 °FClear.6 mph88%30.16 "Hg28 mi
Weather by CustomWeather, © 2014

See weather overviewHow to use our weather pages